This is the latest recevied weather packets stored in our database for station/object N6SPP. If no packets are shown the sender has not sent any weather packets the latest 1 day(s).
| Time | Temp. | Humidity | Pressure | Rain* | Wind** | Luminosity | Snow |
|---|---|---|---|---|---|---|---|
| 1778013803 | 16.67° C | 73% | 1018 hPa | 0 mm | 0.89 m/s, 232° | 252 W/m² | - |
| 1778013500 | 17.22° C | 72% | 1017.9 hPa | 0 mm | 2.24 m/s, 180° | 289 W/m² | - |
| 1778013196 | 17.22° C | 72% | 1018.2 hPa | 0 mm | 1.79 m/s, 233° | 360 W/m² | - |
| 1778012893 | 16.11° C | 74% | 1017.9 hPa | 0 mm | 0.89 m/s, 220° | 403 W/m² | - |
| 1778012588 | 16.67° C | 74% | 1018.1 hPa | 0 mm | 1.79 m/s, 203° | 278 W/m² | - |
| 1778012280 | 16.67° C | 74% | 1018.1 hPa | 0 mm | 0 m/s | 230 W/m² | - |
| 1778011977 | 16.11° C | 75% | 1018.1 hPa | 0 mm | 0.89 m/s, 220° | 224 W/m² | - |
| 1778011675 | 16.11° C | 76% | 1017.9 hPa | 0 mm | 0.89 m/s, 175° | 219 W/m² | - |
| 1778011372 | 16.11° C | 76% | 1018.3 hPa | 0 mm | 0.45 m/s, 13° | 199 W/m² | - |
| 1778011067 | 15.56° C | 76% | 1018.1 hPa | 0 mm | 0.89 m/s, 268° | 212 W/m² | - |
| 1778010765 | 15.56° C | 76% | 1018.2 hPa | 0 mm | 1.34 m/s, 320° | 140 W/m² | - |
| 1778010462 | 16.11° C | 77% | 1018.2 hPa | 0 mm | 0.45 m/s, 161° | 128 W/m² | - |
| 1778010159 | 16.11° C | 76% | 1018.3 hPa | 0 mm | 0.89 m/s, 244° | 133 W/m² | - |
| 1778009854 | 16.11° C | 76% | 1018.1 hPa | 0 mm | 0.45 m/s, 255° | 171 W/m² | - |
| 1778009552 | 16.11° C | 75% | 1018.1 hPa | 0 mm | 1.79 m/s, 327° | 209 W/m² | - |
| 1778009250 | 16.67° C | 74% | 1018.2 hPa | 0 mm | 2.24 m/s, 230° | 267 W/m² | - |
| 1778008948 | 16.67° C | 74% | 1018.3 hPa | 0 mm | 1.34 m/s, 328° | 333 W/m² | - |
| 1778008646 | 16.67° C | 75% | 1018 hPa | 0 mm | 0.45 m/s, 29° | 543 W/m² | - |
| 1778008344 | 16.67° C | 74% | 1017.9 hPa | 0 mm | 1.34 m/s, 233° | 291 W/m² | - |
| 1778008040 | 16.67° C | 74% | 1017.9 hPa | 0 mm | 1.79 m/s, 213° | 401 W/m² | - |
| 1778007740 | 16.67° C | 74% | 1018.1 hPa | 0 mm | 1.34 m/s, 355° | 319 W/m² | - |
| 1778007436 | 17.22° C | 73% | 1018.2 hPa | 0 mm | 1.34 m/s, 233° | 376 W/m² | - |
| 1778007133 | 16.67° C | 73% | 1018.1 hPa | 0 mm | 0 m/s | 634 W/m² | - |
| 1778006829 | 16.11° C | 76% | 1018.2 hPa | 0 mm | 0.89 m/s, 288° | 443 W/m² | - |
| 1778006527 | 16.11° C | 76% | 1018 hPa | 0 mm | 0.89 m/s, 293° | 345 W/m² | - |
* Rain latest hour (hover to see other rain measurements)
** Current wind speed in m/s (hover to see current wind gust speed)